Starlink 5670

operational
NORAD ID: 55341 Int'l Des: 2023-013 Owner: SPXS Country: US Constellation: starlink
LEOCIRCULAR

关于 Starlink 5670

正在加载描述...

实时位置

正在加载3D地球...

即将过境

高度历史

Altitude vs Time

uPlot chart will show altitude changes over time

两行轨道根数

1 55341U 23013L 25350.10563845 .00000221 00000-0 31446-4 0 9991
2 55341 43.0058 34.7258 0001254 266.8442 93.2257 15.02549790159132
Epoch: Dec 16, 2025 • Age: 19 hours

当前状态

高度 569.3 km
速度 7.58 km/s
星下点 -37.57°S, 137.56°W
发射日期 Jan 26, 2023
运行时间 2.8 years
类型 internet

技术详情

分类 Payload
质量 305.00 kg
干质量 290.00 kg
总质量 305.00 kg
长度 0.20 m
直径 2.80 m
跨度 9.00 m
形状 Box + pan
制造商 SPXS
平台类型 Starlink
阶段状态 In Orbit
所有者/国家 SPXS/US

大型星座

Loading constellations...